Location: Kuffner-Sternwarte
(48.2130°N, 16.2960°E)
Time: 04:27:25
(UTC+02:00)

COROT - Pass Details

Date: 18 August 2018
Orbit: 599 x 890 km, 90.0° (Epoch: 16 August)

Event Time Altitude Azimuth Distance (km) Brightness Sun altitude
Exits shadow 03:57:36 - 167° (SSE) 2,305 8.2 -17.0°
Reaches altitude 10° 03:57:54 10° 167° (SSE) 2,186 8.1 -16.9°
Maximum altitude 04:02:39 67° 85° (E) 732 6.0 -16.3°
Drops below altitude 10° 04:07:06 10° 3° (N) 2,043 8.9 -15.8°
Sets 04:09:16 0° 1° (N) 2,927 9.7 -15.5°
